Regional Weather Roundup
Issued by NWS Sioux Falls, SD

Home | Current Version | Previous Version | Graphics & Text | Print | Product List | Glossary On
Versions: 1 2 3 4 5 6 7 8 9 10 11 12 13 14 15 16 17 18 19 20 21 22 23 24 25 26 27 28 29 30 31 32 33 34 35 36 37 38 39 40 41 42 43 44 45 46 47 48 49 50
000
ASUS43 KFSD 180902
RWRFSD

WEATHER ROUNDUP FOR SE SOUTH DAKOTA/SW MINNESOTA/NW IOWA
NATIONAL WEATHER SERVICE SIOUX FALLS SD
400 AM CDT FRI AUG 18 2017

NOTE: "FAIR" INDICATES FEW OR NO CLOUDS BELOW 12,000 FEET WITH NO
SIGNIFICANT WEATHER AND OR OBSTRUCTIONS TO VISIBILITY.


SDZ038>040-050-052>070-181000-
SOUTHEAST SOUTH DAKOTA

CITY           SKY/WX    TMP DP  RH WIND       PRES   REMARKS
BROOKINGS      LGT RAIN  63  56  78 SW7       29.89R
CHAMBERLAIN    CLOUDY    61  61 100 SE5       29.92F
HURON          RAIN      62  59  90 CALM      29.91S FOG
MADISON        CLOUDY    61  61 100 SW9       29.91R
MITCHELL       CLOUDY    63  61  93 N5        29.94R
SIOUX FALLS    LGT RAIN  64  63  96 SE10      29.88S
WINNER         FAIR      61  58  90 S9        29.92S
YANKTON        CLOUDY    63  58  83 W9        29.91R
$$

MNZ071-072-080-081-089-090-097-098-181000-
SOUTHWEST MINNESOTA

CITY           SKY/WX    TMP DP  RH WIND       PRES   REMARKS
FAIRMONT       CLOUDY    61  59  93 N3        29.90F
JACKSON        CLOUDY    61  59  94 CALM      29.92R
LUVERNE        RAIN      61  59  94 CALM      29.90F
MARSHALL       CLOUDY    62  59  90 S7        29.88F
MONTEVIDEO     CLOUDY    61  61 100 CALM      29.87F
PIPESTONE      LGT RAIN  63  55  77 CALM      29.90F
REDWOOD FALLS  CLOUDY    61  58  90 CALM      29.88F
TRACY          CLOUDY    63  60  90 SW6       29.89F
WINDOM         LGT RAIN  61  59  94 CALM      29.91S
WORTHINGTON    CLOUDY    61  59  93 SW6       29.93F
$$

IAZ001>003-012>014-020>022-031-032-NEZ013-014-SDZ071-181000-
NORTHWEST IOWA

CITY           SKY/WX    TMP DP  RH WIND       PRES   REMARKS
CHEROKEE       CLOUDY    62  62 100 E5        29.92F
DENISON        MOCLDY    59  59 100 S3        29.94F
ESTHERVILLE    CLOUDY    60  60 100 SW5       29.92S
LE MARS          N/A     66  63  88 NE8       29.87F
ORANGE CITY    CLOUDY    64  64 100 NE3       29.88F
SHELDON        CLOUDY    63  61  94 E7        29.87F
SIOUX CITY     MOCLDY    67  66  97 CALM      29.87F
SPENCER        CLOUDY    60  59  96 CALM      29.92F
STORM LAKE     CLOUDY    59  57  94 NE5       29.92F
$$

ABBREVIATIONS USED IN REMARKS
   TC - TEMPERATURE IN CELSIUS
  WCI - WIND CHILL INDEX
   HX - HEAT INDEX
  VSB - VISIBILITY




USA.gov is the U.S. government's official web portal to all federal, state and local government web resources and services.